Погода в Суордахе

Россия / Республика Саха (Якутия)     66°40′36″N   131°46′22″E
темп.,
°C
ветер,
м/с
пор.,
м/с
влажн.,
%
обл.,
%
осадки,
мм/ч
давл.,
гПа
погр.,
м
27 февраля, сб
сб2701:00−33ююв009799 0.0 103219
04:00−33юз019899 0.0 103119
07:00−35юз019846 0.0 103119
10:00−34ююз119627 0.0 103119
13:00−29юв11867 0.0 1030266
16:00−28в118644 0.0 1028329
19:00−34ссв119847 0.0 102919
22:00−35сз1110024 0.0 102919
28 февраля, вс
вс2801:00−36ссв0110018 0.0 102819
04:00−37з0010024 0.0 102719
07:00−37юз00990 0.0 102619
10:00−35ююз009632 0.0 102519
13:00−30юв118798 0.0 1025221
16:00−29юв118692 0.0 1023287
19:00−34ююв119525 0.0 102419
22:00−35ююз019613 0.0 102519
1 марта, пн
пн101:00−36юз11979 0.0 102419
04:00−36ю019622 0.0 102419
07:00−34ююз119594 0.0 102419
10:00−33ююв119397 0.0 102440
13:00−29юв118694 0.0 1022276
16:00−28в118596 0.0 1022333
19:00−32св019793 0.0 102419
22:00−31св019896 0.0 102419
2 марта, вт
вт201:00−31ссв1199100 0.1 102438
04:00−31ссв1199100 0.2 102439
07:00−32св1199100 0.1 102519
10:00−31ссв1196100 0.1 1025115
13:00−29св118899 0.1 1025329
16:00−29св1188100 0.1 1025341
19:00−34ссв1110071 0.0 102719
22:00−36сз119946 0.0 102819
3 марта, ср
ср301:00−36ссз019978 0.0 102719
04:00−34ссз019789 0.0 102719
07:00−34св1197100 0.0 102619
10:00−32св0196100 0.1 1025118
13:00−30св1189100 0.2 1022315
16:00−29св1290100 0.2 1021378
19:00−31св1199100 0.1 102019
22:00−31ссв1199100 0.3 102026